Theta_e
301 300 299 299 299 299 300 301 302 301 301 301 302 302 303 303 304 304 300 304 300 293 294 296 296 292 293 293 289 293 291 291 292 288 287 288 285 289 285 288 285 285 284 285 285 281 279 294 291 284 290 291 291 290
301 299 298 299 299 299 299 299 301 301 301 301 302 302 303 303 304 304 298 304 304 295 295 301 300 301 299 298 295 294 292 290 294 290 290 290 286 287 286 281 291 284 287 286 286 287 298 297 293 294 295 291 291 289
301 300 299 299 299 299 299 299 300 301 301 301 301 301 303 303 304 305 302 303 298 294 295 295 295 300 302 301 302 291 294 297 294 298 294 292 286 289 283 286 288 292 292 286 286 293 294 296 295 296 295 293 292 292
301 300 300 300 299 299 299 299 300 301 301 300 301 301 303 304 306 307 303 303 299 296 289 292 299 297 302 301 301 300 299 297 298 297 292 290 287 294 289 290 288 291 290 288 288 292 293 293 294 294 294 294 292 292
302 302 302 302 301 300 300 300 300 301 300 300 301 301 302 303 305 306 305 303 302 295 288 290 296 298 299 299 298 299 298 297 295 291 290 289 293 291 292 291 288 293 290 288 287 296 291 291 295 295 292 291 292 291
301 301 301 302 302 301 300 301 301 301 300 300 301 301 302 303 304 300 294 301 302 301 291 285 295 295 298 298 297 296 297 296 295 292 292 295 297 293 288 287 295 298 300 299 295 297 295 296 297 294 292 292 293 292
300 301 301 301 302 302 301 301 301 300 300 301 301 302 302 303 303 295 293 300 303 302 291 286 288 295 297 296 299 296 297 295 294 293 291 293 294 294 290 286 294 298 299 299 299 296 294 297 293 293 293 293 294 294
299 300 300 301 301 301 300 300 300 300 301 301 302 302 302 302 301 296 300 302 303 296 294 286 286 290 296 293 293 298 292 293 293 293 295 294 296 293 288 295 298 299 298 297 297 298 298 298 294 293 294 293 292 292
298 298 299 300 300 300 299 299 299 300 301 301 301 302 301 296 293 297 303 304 304 297 288 289 285 283 295 293 293 296 294 288 296 290 292 295 291 289 293 297 299 300 296 296 298 299 298 297 292 292 293 292 291 291
298 298 298 298 298 298 299 299 300 299 300 301 299 293 289 294 301 301 299 294 292 293 292 286 291 285 291 291 290 292 295 291 288 292 297 290 291 299 301 300 300 299 298 298 295 295 297 294 292 292 291 293 292 292
297 298 298 298 298 298 298 299 299 299 297 296 291 289 295 298 297 294 288 288 289 286 289 290 290 286 295 287 287 291 289 291 288 293 292 290 292 295 298 298 300 299 299 299 299 298 297 295 292 291 292 293 293 293
297 297 297 297 298 298 298 298 299 297 295 294 294 296 295 292 289 283 283 288 286 284 289 288 290 291 291 294 289 291 288 291 286 296 291 289 294 296 297 296 299 300 299 298 297 296 296 294 293 293 293 293 293 294
297 297 297 297 297 297 298 298 298 299 297 295 290 287 286 286 280 279 278 283 284 288 290 291 287 291 294 293 289 289 287 286 296 290 289 293 295 296 297 299 299 299 299 297 296 296 296 294 294 294 293 294 295 294
297 297 297 297 297 297 298 298 298 298 294 287 282 277 279 279 281 283 284 286 290 290 288 287 287 289 293 291 292 287 290 291 288 287 288 294 295 297 298 300 299 298 298 297 296 296 294 294 294 294 295 295 294 294
296 296 297 297 297 297 298 298 297 298 291 284 282 276 280 285 287 289 289 288 290 291 287 286 288 290 289 289 293 291 288 286 288 285 287 295 295 297 299 299 300 299 298 297 297 296 295 295 294 294 295 296 296 295
296 296 295 297 297 297 298 297 296 295 289 285 283 280 284 283 284 286 287 287 291 289 289 289 284 283 284 288 287 288 288 284 285 286 293 295 295 298 300 301 301 301 300 298 298 297 296 296 294 295 296 295 295 295
295 293 296 296 296 296 297 294 292 286 283 282 281 285 285 285 284 285 287 288 291 287 284 285 280 280 286 284 284 291 286 287 290 290 294 295 297 299 301 302 302 302 299 299 298 297 297 298 297 295 294 295 296 296
293 295 295 296 296 295 294 293 287 284 281 282 281 284 286 287 286 286 288 288 287 286 286 282 286 280 280 279 284 288 290 291 293 291 293 296 299 301 300 302 302 299 300 300 300 299 298 298 297 296 295 296 296 296
294 295 295 296 295 292 286 288 288 281 283 285 286 286 287 287 289 290 289 290 290 291 289 286 282 280 282 286 288 290 291 291 290 289 293 298 301 301 302 302 300 299 299 299 301 300 299 299 298 298 297 297 295 296
297 297 296 296 295 289 284 284 290 285 283 285 287 286 286 286 288 289 289 289 288 286 283 283 283 286 289 292 294 294 293 294 292 288 291 298 301 302 300 300 299 299 299 298 299 297 299 298 299 299 298 297 296 295
295 295 296 295 292 289 286 285 285 286 286 284 287 286 285 288 285 284 285 288 285 284 283 286 288 290 293 293 295 295 293 294 291 291 291 296 300 301 299 300 300 299 299 298 297 296 297 298 299 299 298 298 298 298
293 296 294 294 288 288 286 289 286 288 286 286 286 287 284 284 285 286 288 284 285 287 289 289 290 290 290 291 294 294 295 295 295 296 294 297 299 298 299 301 300 298 299 298 298 298 298 299 299 300 299 298 297 298
295 294 291 289 285 285 284 289 283 285 281 283 287 285 286 286 287 289 285 287 288 291 292 292 292 293 292 293 294 295 297 296 295 297 300 302 301 300 300 300 302 300 299 299 300 299 299 294 296 299 298 298 297 295
296 289 286 285 285 281 287 286 287 286 287 286 285 284 286 286 287 287 285 289 291 293 291 292 293 292 293 293 293 295 296 300 300 301 302 302 298 298 300 300 302 303 303 301 301 300 300 299 295 298 298 297 297 296
284 284 285 282 286 283 282 283 285 285 283 286 285 286 288 288 285 285 287 292 294 294 293 294 293 293 293 294 296 297 301 300 300 300 301 301 299 298 300 301 303 303 303 301 300 300 300 299 299 299 298 298 296 296
281 284 282 283 284 283 284 283 285 286 286 286 287 291 294 292 290 289 294 298 298 297 295 294 294 294 294 296 298 299 299 303 302 300 300 303 302 301 300 300 300 302 304 304 302 300 298 298 299 299 298 296 289 296
280 282 286 289 288 288 287 289 289 286 286 287 291 291 291 289 289 294 300 302 301 302 303 301 300 299 301 302 304 303 303 304 304 302 304 304 304 305 304 302 301 303 304 303 303 302 301 299 299 299 298 298 298 298
284 286 283 287 286 288 285 286 286 287 289 294 293 290 288 290 292 298 301 304 303 304 305 306 307 307 306 306 305 303 303 304 305 304 304 304 306 306 307 308 306 294 305 305 303 303 301 300 299 298 298 298 299 300
285 288 288 285 287 288 287 286 287 288 289 291 291 291 292 299 301 301 302 303 305 306 304 303 305 306 306 306 305 304 305 304 302 299 298 299 301 304 308 308 307 308 308 304 288 297 303 302 302 301 301 301 301 302
286 290 287 288 287 288 290 289 291 296 297 297 297 298 299 301 303 305 303 303 304 303 304 306 306 306 303 303 303 304 307 307 306 303 301 299 301 304 305 306 308 308 308 306 303 298 287 298 296 302 301 302 301 302
292 290 288 288 289 295 297 298 297 298 297 297 297 296 297 300 304 306 305 303 304 305 305 303 304 305 305 305 305 304 303 306 308 308 307 306 305 305 306 307 307 307 307 305 303 303 302 304 304 304 302 301 301 300
290 289 289 289 291 296 299 296 295 294 294 295 295 298 299 299 297 302 304 306 304 303 296 303 304 302 304 304 306 304 296 307 308 308 309 307 306 306 306 308 308 308 308 307 306 306 305 304 303 303 302 300 299 298
291 292 293 292 291 293 297 295 293 292 293 293 294 293 294 295 295 302 305 304 305 304 303 303 303 302 303 304 304 301 297 300 293 287 288 290 290 296 305 307 307 306 305 304 304 304 303 302 300 299 299 297 297 296
Wind_Speed
6 5 7 9 10 11 12 12 13 14 15 16 16 16 16 15 13 5 5 6 5 4 14 19 19 17 12 7 5 4 8 3 2 4 3 0 3 1 3 4 4 3 2 3 4 5 8 2 1 3 7 16 16 17
8 5 8 9 10 11 11 13 13 14 15 15 16 17 17 16 15 10 3 3 3 5 11 17 21 21 22 24 14 9 8 1 3 1 2 2 3 3 4 6 3 6 7 2 7 7 9 6 9 8 12 16 13 17
9 9 9 9 9 10 11 12 13 14 15 15 16 17 18 18 16 9 4 2 1 4 11 8 8 9 12 16 15 7 6 10 5 4 2 4 6 3 4 6 6 5 4 5 1 7 13 11 7 9 13 12 14 14
13 12 11 10 8 9 11 13 12 14 15 15 16 17 18 18 19 11 2 1 1 3 5 6 2 10 10 13 16 18 15 2 2 3 4 5 4 7 4 6 8 7 4 6 9 15 13 8 6 11 9 14 15 13
11 11 13 13 8 8 10 12 11 12 14 15 16 16 17 17 20 6 3 3 2 2 5 10 18 4 3 6 10 14 16 12 4 3 5 4 3 3 4 5 10 6 7 6 7 8 6 5 8 7 10 13 12 13
11 11 11 11 12 10 10 9 9 12 14 16 16 16 17 17 18 5 2 2 2 1 4 6 5 6 9 9 5 7 11 9 4 3 3 4 4 4 5 5 8 13 13 13 11 1 4 8 9 4 10 12 13 11
9 9 10 11 12 12 9 7 10 13 15 16 16 17 17 17 6 4 3 2 3 1 3 6 6 4 7 4 1 2 7 4 4 3 5 5 5 4 4 10 16 13 11 10 8 2 4 9 3 4 9 10 11 10
6 6 7 7 7 5 3 8 12 14 15 17 18 19 19 16 6 5 3 2 6 2 3 4 5 6 4 4 3 2 3 4 5 4 3 4 3 4 8 13 12 9 6 3 2 5 8 5 2 6 8 8 10 10
6 7 6 6 5 6 8 10 12 14 15 18 19 18 4 2 3 2 7 10 4 3 3 3 4 6 6 4 4 3 3 4 3 5 5 4 4 8 14 13 12 9 3 4 4 3 3 5 3 5 8 10 9 9
7 7 6 7 7 8 9 9 10 13 17 18 4 2 2 2 11 12 0 3 2 3 4 3 3 6 5 3 4 4 3 3 4 6 3 5 5 15 12 10 9 5 7 4 2 3 7 5 4 5 7 7 8 8
7 7 7 7 6 8 8 10 9 12 6 3 3 3 4 9 2 2 3 3 2 3 3 3 5 6 3 4 4 3 4 4 4 2 3 2 3 3 5 5 5 5 5 4 4 6 6 7 5 5 7 8 7 7
7 7 7 7 8 8 8 7 7 1 1 2 4 5 3 3 2 2 3 3 4 1 2 3 4 5 4 3 3 3 4 3 5 3 3 3 3 3 3 3 4 5 4 7 10 9 7 9 6 5 6 7 7 8
9 9 8 8 7 7 8 8 6 4 1 1 1 3 2 2 4 5 5 3 2 2 3 4 6 3 3 4 4 4 4 6 3 3 3 3 3 2 4 5 4 4 5 10 11 9 10 8 6 7 7 8 7 9
9 9 8 8 8 8 8 6 3 2 1 1 2 5 5 5 5 4 3 2 2 2 3 6 5 3 2 4 4 5 4 4 4 3 3 4 6 3 4 4 5 6 9 10 10 11 9 8 7 8 8 7 8 10
10 9 9 10 10 9 8 6 3 1 1 2 2 6 7 6 3 1 1 3 3 2 5 6 4 3 4 5 4 5 5 4 3 4 4 8 4 2 5 5 4 6 7 8 8 10 10 8 9 8 6 8 9 11
9 9 8 13 11 11 9 1 2 1 1 4 7 6 6 6 7 6 6 6 1 0 3 2 3 4 4 4 5 6 4 5 4 5 10 7 4 3 4 4 3 4 7 8 7 9 8 9 9 7 6 9 9 10
7 3 5 4 2 1 6 3 2 5 6 6 6 8 10 8 8 8 4 4 3 1 1 2 4 5 4 4 5 3 4 5 7 9 10 8 6 3 2 4 2 3 8 10 9 9 8 8 11 7 9 9 9 10
3 3 4 7 2 2 1 3 3 5 9 9 8 9 10 8 9 9 8 5 5 3 3 4 3 5 5 5 2 2 2 3 5 9 12 8 7 4 3 4 3 6 9 10 10 10 7 8 9 9 11 10 8 8
7 6 8 7 4 3 2 4 4 5 9 7 9 8 8 10 12 12 10 7 8 5 3 4 8 7 12 6 5 5 5 6 8 11 14 10 6 4 3 2 5 7 8 9 9 7 6 5 7 7 8 8 7 6
14 14 12 10 7 3 3 4 3 6 5 5 7 11 10 8 9 10 10 10 8 5 7 8 12 11 6 6 5 3 2 4 6 10 11 9 3 3 3 4 6 7 7 9 8 8 8 7 5 7 6 6 6 5
3 4 10 8 3 5 4 3 5 4 5 6 5 6 6 7 10 13 12 8 8 7 9 12 12 11 9 9 7 5 7 4 5 8 12 8 2 1 2 5 6 5 6 5 6 6 6 7 7 6 7 6 5 5
2 8 3 6 5 4 6 6 5 3 5 6 8 9 9 11 12 11 6 9 7 12 11 12 11 10 11 12 8 8 8 9 10 9 8 5 3 2 2 7 5 4 5 5 5 6 6 7 7 7 7 6 5 5
5 4 2 4 7 7 5 5 6 6 6 5 4 5 5 4 3 5 4 5 8 10 11 12 12 12 12 10 10 11 8 8 10 9 6 5 4 5 3 5 1 4 5 4 5 6 6 7 7 8 8 8 7 6
4 2 4 4 6 5 3 5 5 5 5 5 5 7 3 2 4 3 4 5 7 7 11 13 11 9 8 11 9 9 5 8 7 5 6 6 6 5 6 5 2 1 3 6 6 6 7 6 7 7 8 9 8 8
5 6 5 7 5 5 6 5 5 6 6 5 5 5 2 4 4 4 2 1 2 6 8 9 9 9 8 7 5 6 5 7 8 8 5 7 8 5 2 1 2 3 4 7 6 7 7 6 6 7 8 8 9 9
5 6 7 5 4 5 4 4 3 3 5 5 5 4 2 3 4 6 4 6 4 5 7 9 9 7 5 5 4 5 5 6 8 8 7 11 10 8 5 4 5 4 3 4 8 8 8 7 8 9 8 8 7 10
6 6 6 5 4 4 5 5 6 6 6 5 3 3 3 5 6 4 3 3 2 1 3 6 6 7 6 6 5 6 7 8 9 8 9 8 6 3 3 4 5 4 4 7 7 8 8 8 9 8 8 8 8 8
6 4 6 2 4 4 4 3 4 4 4 3 4 3 3 4 4 3 3 5 4 2 5 4 3 4 6 6 7 9 9 8 10 11 8 5 2 2 3 2 5 8 6 5 7 7 7 8 8 8 8 9 7 6
5 3 4 8 6 5 5 5 4 3 3 2 2 1 1 1 4 3 3 3 1 3 8 9 7 7 8 8 6 6 9 9 13 15 11 6 6 5 4 5 6 4 4 4 5 5 10 8 8 8 8 7 6 6
5 6 4 4 4 4 4 6 4 4 2 2 2 1 2 3 6 5 2 2 3 6 7 7 7 7 9 10 9 8 5 5 7 8 10 6 4 2 3 4 4 4 5 6 7 7 6 8 7 6 7 6 6 6
1 4 4 5 4 3 3 4 2 1 2 3 4 3 2 3 2 6 7 4 4 6 8 8 8 7 9 9 8 8 6 3 5 7 6 7 6 4 5 6 6 6 6 6 5 6 7 7 6 8 8 8 8 8
4 7 4 3 3 2 4 2 3 3 4 4 5 4 3 4 4 5 7 5 4 6 5 7 9 6 5 5 5 5 7 8 8 8 10 8 6 5 5 7 7 7 7 7 6 7 9 9 9 9 10 10 10 9
4 4 4 2 2 2 1 0 1 1 3 2 3 3 3 2 4 4 3 6 4 4 6 7 6 7 8 8 10 9 9 8 9 8 8 10 9 7 6 7 7 7 9 8 7 8 10 13 10 11 11 11 12 11
Wind_Direction
252 283 321 309 314 314 324 329 339 347 344 343 342 342 346 343 340 336 283 262 251 239 279 268 270 264 263 243 241 347 334 165 231 226 246 286 264 320 286 256 243 250 250 248 249 253 268 123 72 253 296 302 300 310
247 279 292 297 305 313 319 322 328 339 338 337 335 338 337 336 330 321 261 250 212 240 271 287 273 259 254 258 270 247 241 328 261 228 212 312 251 261 252 275 215 247 209 222 222 254 296 314 272 264 283 300 307 310
247 253 274 287 300 307 312 318 321 330 332 333 331 332 332 334 327 305 255 266 200 262 273 264 271 266 238 231 229 237 230 225 211 226 291 251 237 188 243 245 256 242 173 233 309 246 269 285 289 279 298 300 311 308
242 252 259 265 277 301 306 308 314 325 326 326 327 329 333 333 328 313 262 159 233 278 278 292 201 277 282 258 222 216 242 66 131 188 210 237 225 190 235 257 251 257 172 237 253 276 285 275 270 283 297 316 321 309
269 275 272 275 261 289 296 301 304 319 320 322 323 325 331 331 331 310 256 220 238 254 292 295 305 286 268 269 234 223 216 223 225 208 221 234 232 222 229 249 259 185 221 216 260 274 214 259 282 292 322 325 316 325
265 269 275 292 257 265 288 291 310 317 317 318 318 319 323 323 328 308 252 179 199 218 301 297 328 283 309 306 278 214 204 209 215 234 237 233 223 199 258 251 228 220 235 243 270 330 233 280 301 334 320 322 332 325
264 275 281 280 284 264 269 308 317 316 313 314 312 311 313 316 297 255 285 55 130 282 260 292 296 285 309 297 148 113 170 178 205 218 233 257 235 210 256 258 267 275 275 270 272 276 277 291 292 325 326 336 330 314
284 291 308 299 296 297 301 309 312 311 311 310 307 306 306 296 287 264 256 239 182 248 240 274 276 289 8 306 299 154 170 195 209 239 232 226 187 206 250 250 272 281 289 261 207 221 263 300 163 345 337 338 343 350
272 284 293 300 303 308 310 311 309 308 310 311 309 308 286 205 233 261 279 291 203 242 277 258 288 307 350 318 291 240 190 218 195 227 222 213 211 226 247 267 270 278 218 158 227 284 285 288 77 359 352 354 353 1
264 272 279 283 288 297 302 309 316 318 314 314 297 313 260 208 312 299 358 158 177 178 220 255 278 268 306 323 286 298 248 242 232 219 191 210 247 256 297 317 283 176 147 181 267 360 348 54 33 18 6 6 13 4
258 269 275 288 295 303 305 307 316 328 340 355 339 277 331 315 287 252 271 232 152 215 209 245 252 271 287 256 278 264 305 277 266 163 237 244 260 8 25 30 42 107 94 64 54 70 55 52 38 32 11 29 30 17
260 269 275 282 286 293 299 308 317 12 257 309 303 292 277 275 225 252 251 217 215 252 138 245 266 251 265 229 265 258 272 272 258 136 250 253 49 24 73 60 69 79 84 81 77 76 65 60 54 43 30 43 49 28
259 266 271 274 278 285 291 295 301 296 345 308 244 265 259 267 245 225 203 207 237 80 271 307 308 259 228 224 248 265 255 252 345 244 252 34 357 122 95 112 91 49 104 99 84 77 70 76 57 51 52 62 58 58
260 266 266 271 269 270 279 287 308 80 78 306 293 274 227 212 232 208 230 31 129 257 314 318 290 268 275 239 242 255 247 259 244 249 12 16 337 135 118 111 98 55 116 102 92 78 71 75 65 64 58 69 68 63
256 263 266 265 262 262 268 248 195 155 148 247 225 242 235 241 261 249 256 287 275 276 333 320 284 257 274 267 248 264 236 263 30 23 287 333 359 63 127 125 125 101 123 110 103 87 78 78 80 80 43 78 75 79
254 273 252 250 250 247 249 229 110 127 203 225 230 242 252 270 253 241 247 260 172 113 315 273 309 285 265 296 272 243 275 55 357 305 333 327 6 19 137 161 189 100 138 127 114 104 97 86 94 95 76 90 73 86
246 222 217 201 206 177 189 142 121 200 219 227 229 234 254 284 273 261 243 222 143 287 313 288 269 252 300 256 260 331 41 4 340 338 328 330 329 323 192 222 258 80 130 134 124 111 102 95 105 90 80 78 76 84
219 194 221 230 147 127 137 171 206 241 233 228 238 229 217 234 249 250 236 218 187 223 205 234 270 241 241 244 234 109 24 355 351 345 323 319 309 294 260 267 22 117 126 135 133 124 120 104 93 87 92 93 87 92
215 210 229 209 154 158 226 217 225 263 237 239 236 234 233 243 235 246 248 222 210 194 191 214 230 231 226 248 273 301 349 9 359 335 318 311 302 305 284 328 119 117 125 130 134 126 125 112 100 102 109 121 117 101
231 224 211 222 186 181 239 236 218 250 252 239 241 236 226 234 247 238 234 223 194 183 203 215 223 223 209 207 221 235 309 346 345 325 313 307 341 334 338 144 126 124 110 108 112 123 124 122 117 122 125 134 130 120
182 218 213 205 187 198 257 255 238 239 255 243 259 232 245 229 231 228 224 199 197 207 218 219 234 238 234 243 258 277 286 319 285 277 285 281 297 354 121 130 127 130 125 123 121 119 133 133 141 139 139 140 137 124
217 189 147 183 212 227 240 224 239 284 252 248 252 237 247 241 236 230 178 198 215 218 221 231 235 228 237 230 233 241 263 266 261 271 272 234 180 107 124 146 128 134 137 137 139 131 120 124 131 135 136 130 135 133
184 163 202 197 207 221 244 169 218 208 241 254 231 230 230 239 198 120 169 209 226 218 212 221 221 224 232 235 237 238 227 246 265 269 221 195 124 106 145 87 239 146 140 132 136 130 122 120 124 127 129 135 132 124
133 213 214 229 210 255 246 225 210 239 237 251 262 266 240 168 157 209 211 200 207 197 200 204 199 209 225 237 241 248 223 240 224 174 162 140 125 109 122 178 232 151 133 136 144 137 136 131 124 130 136 134 137 137
190 209 220 227 226 226 232 236 226 226 255 247 252 259 224 168 198 216 238 100 147 183 183 182 187 194 206 223 227 252 203 171 166 143 147 125 118 117 168 225 147 121 139 138 145 147 143 142 142 140 139 138 137 137
232 205 207 218 224 226 239 273 289 293 292 270 258 250 258 295 350 29 36 21 57 131 163 174 176 178 193 213 215 167 159 161 145 145 149 150 158 155 155 155 141 133 182 162 148 146 142 146 145 145 131 130 128 136
238 239 211 231 263 280 270 267 283 279 268 265 298 318 321 2 45 35 355 59 347 83 176 160 166 169 175 171 140 122 144 158 161 153 145 160 169 176 165 162 150 110 145 141 141 142 142 144 145 145 138 146 158 151
243 261 235 227 223 221 247 242 243 251 261 295 295 355 33 26 24 346 341 354 347 100 111 125 157 138 132 118 120 128 122 125 119 114 116 121 141 152 154 97 107 97 102 112 122 124 127 137 145 144 148 150 154 162
233 237 228 269 254 224 225 221 234 239 240 244 255 85 218 37 349 336 330 351 337 140 108 109 100 102 98 97 97 124 134 135 136 135 134 141 157 154 174 150 143 138 137 118 59 114 141 144 148 149 146 149 148 148
235 200 216 258 256 255 230 185 245 264 276 292 304 39 56 49 20 8 22 31 79 93 102 105 117 120 125 124 125 119 113 147 156 151 155 163 194 152 141 166 159 139 119 115 115 107 100 115 114 113 129 133 141 142
221 180 229 240 275 318 321 315 246 294 14 30 10 54 40 0 71 43 40 39 82 106 114 112 108 120 128 130 135 129 115 89 132 122 116 121 128 138 148 142 140 140 138 131 134 140 136 141 138 133 130 123 124 125
205 207 224 240 274 296 300 342 1 26 20 20 20 21 21 28 57 30 4 348 84 93 96 117 111 100 99 102 88 79 99 115 121 128 119 111 104 110 113 111 111 116 125 124 122 121 118 116 116 118 112 105 98 91
219 203 193 237 254 250 244 178 65 52 53 46 42 22 11 20 62 15 43 15 49 89 100 96 94 88 83 92 102 94 80 82 76 63 67 79 76 77 82 96 98 98 99 92 88 96 102 106 98 98 100 101 98 95